Regional Weather Roundup
Issued by NWS

Home | Current Version | Previous Version | Graphics & Text | Print | Product List | Glossary On
Versions: 1 2 3 4 5 6 7 8 9 10 11 12 13 14 15 16 17 18 19 20 21 22 23 24 25 26 27 28 29 30 31 32 33 34 35 36 37 38 39 40 41 42 43 44 45 46 47 48 49 50
000
ASUS43 KLMK 210302
RWRKY
KENTUCKY REGIONAL WEATHER ROUNDUP
NATIONAL WEATHER SERVICE LOUISVILLE KY
1100 PM EDT SUN AUG 20 2017

NOTE "FAIR" INDICATES FEW OR NO CLOUDS BELOW 12,000 FEET
WITH NO SIGNIFICANT WEATHER AND/OR OBSTRUCTIONS TO VISIBILITY.

KYZ001>023-026-027-061>063-070>075-210400-
WESTERN AND SOUTH CENTRAL KENTUCKY

CITY           SKY/WX    TMP DP  RH WIND       PRES   REMARKS
PADUCAH        PTCLDY    73  70  90 SE5       30.08R
HENDERSON      CLEAR     75  70  84 S5        30.09R
OWENSBORO      CLEAR     77  71  82 S3        30.10R
HOPKINSVILLE   CLEAR     78  70  77 CALM      30.11R
BOWLING GREEN  CLEAR     79  70  74 CALM      30.11R
GLASGOW        PTCLDY    73  70  90 CALM      30.13R
$$

KYZ024-025-028>034-038-045-046-053-210400-
NORTH CENTRAL KENTUCKY

CITY           SKY/WX    TMP DP  RH WIND       PRES   REMARKS
LOUISVILLE/SDF PTCLDY    82  69  64 SE5       30.09R
LOUISVILLE/LOU PTCLDY    82  69  64 S3        30.10R
FORT KNOX      PTCLDY    73  68  86 CALM      30.09R
$$

KYZ035>037-039>044-047>052-055>060-089>105-210400-
NORTHEAST KENTUCKY

CITY           SKY/WX    TMP DP  RH WIND       PRES   REMARKS
LEXINGTON      CLEAR     77  67  71 S5        30.13R
COVINGTON      CLOUDY    75  68  78 SE5       30.10S
FRANKFORT      CLOUDY    75  67  76 CALM      30.11R
$$

KYZ054-064>069-076>088-106>120-210400-
SOUTHEAST KENTUCKY

CITY           SKY/WX    TMP DP  RH WIND       PRES   REMARKS
JACKSON        CLEAR     76  61  59 E3        30.17S
LONDON         CLEAR     71  67  87 CALM      30.17R
SOMERSET       NOT AVBL
MIDDLESBORO    CLEAR     72  70  93 CALM      30.19R
MONTICELLO     CLEAR     66  65  96 CALM      30.17R FOG
$$




USA.gov is the U.S. government's official web portal to all federal, state and local government web resources and services.